sat.trackr.live / text

‹ back to catalog

CENTISPACE-2 S4

NORAD 68353 · 2026-060D

PAYLOAD ACTIVE UNKNOWN

§ Identity

Operator
Country
PRC
Launch date
2026-03-22
Launch site
YSLA
Launch vehicle
Mass (kg)
RCS (m²)

External: N2YO · Heavens-Above · Gunter

§ Orbital elements

Epoch: 2026-09-18T16:30:22.230720Z

Period
101.23 min
Inclination
54.9802°
Eccentricity
0.0007772
Mean motion
14.22571610 rev/d
Perigee alt
811.1 km
Apogee alt
822.3 km
Semi-major
7,194.8 km
B*
1.9838e-4
RAAN
33.1365°
Arg perigee
273.5889°
Mean anomaly
86.4198°
Rev number
2,627

§ Raw data

CENTISPACE-2 S41 68353U 26060D   26261.68775730  .00000289  00000+0  19838-3 0  99992 68353  54.9802  33.1365 0007772 273.5889  86.4198 14.22571610 26273

JSON: /api/v1/satellites/68353 · /tle

For live sub-satellite position, see the globe view (requires WebGL).

§ Visibility from observer

Set your observer location to see the next 7 days of passes ≥ 10°. The values pass through the URL so the page stays shareable.

No JS? Fill the form by hand. The geolocation button needs JavaScript.